COSMOS 2251 DEB, 35012

Orbit data source: Space-Track

COSMOS 2251 DEB, 35012 is space debris in LEO originally from a launch on Wed, 16 Jun 1993 UTC launched from the Plesetsk Missile And Space Complex (PKMTR). The debris from Iridium 33, an American commercial communications satellite, has been tracked extensively since its accidental collision with the defunct Russian satellite Cosmos 2251 in 2009. This event, occurring at high speed in low Earth orbit (LEO), generated thousands of pieces of space debris, significantly increasing the risk of further collisions. The Iridium 33 debris cloud has impacted space traffic management and orbital debris mitigation strategies, making it a subject of ongoing study in space situational awareness.

Loading next visibility...
Identifier
35012, 1993-036AFZ
Orbit
LEO
Country
Flag of CISCIS
Related business
Manufacturer
Unknown
Mission
Spacecraft
Bus & Motor
Unknown
Mass
Unknown
Launch date (UTC)
1993-06-16 (33 years ago)
Launch vehicle
Unknown
Launch site
Plesetsk Missile And Space Complex (PKMTR)
Object type
Payload
Rocket body
Debris
Shape & HBR
Unknown shape, 0.1 m
Radar Cross Section
Small (<0.1 m²)

Expand to show TLE details & history
Last TLE update: 16 hours ago

TLE from 16 hours ago
0 COSMOS 2251 DEB
1 35012U 93036AFZ 26122.96864938  .00000336  00000-0  99046-4 0  9992
2 35012  74.0208 208.1099 0081318 313.0963  46.3408 14.45702293896026
Epoch: 2026-05-02T23:14Z
TLE epoch observation values (Epoch: 2026-05-02T23:14:51.306Z)
Latitude
-0.00008°
Longitude
-1.48284°
Altitude
702.625 km
Speed
7.526 km/s
True Right ascension
13h 52m 26s
True Declination
0° 00' 00"
Sunlit
Object was in full shadow at epoch
Visualization orbit readout
Latitude
Unknown
Longitude
Unknown
Altitude
Unknown
Speed
Unknown
Apparent Right ascension
Unknown
Apparent Declination
Unknown
Sunlit
N/A
Visualization observer readout
Local Sidereal Time
22:41:03
Azimuth
Unknown
Elevation
Unknown
Doppler factor
Unknown
Orbital elements
Apogee altitude
795.196 km
Perigee altitude
679.473 km
Semi-major axis
7,115.471 km
Eccentricity
0.00813
Inclination
74.0208°
RAAN
208.1099°
Arg. of periapsis
313.0963°
True anomaly
47.01969°
Mean anomaly
46.3408°
Eccentric anomaly
46.67977°
Mean motion
3.61608 °/min
Orbital period
99.56 mins
BSTAR
0.000099046
Loading maneuver chart data...
Computing Atmospheric mass density...
Loading historical data...
Loading historical data...
Loading historical data...
Loading historical data...
Loading historical data...
Loading historical data...
Loading historical data...

Documentation

Showing up to 5 results
|